Wind_Speed
51 52 52 52 51 51 51 52 53 55 56 57 56 55 56 56 57 59 60 62 63 64 66 67 68 69 70 71 71 71 71 71 71 71 70 70 70 69 69 68 67 67 66 66 65 65 64 63 62 61 60 59 59 58 57 56 56 55 55 54 51 48 44 41 41 42 41 41 41 40 39 38 36 35 34 33 31 29 29 31 31 32 33 33 32
54 55 55 55 54 53 54 55 57 58 59 60 59 58 58 58 59 60 62 63 64 66 67 68 70 72 72 72 72 71 71 71 71 70 70 70 69 69 68 67 66 66 65 65 65 64 63 62 61 60 59 59 58 57 56 55 55 54 53 50 46 43 40 40 41 41 41 41 40 38 37 35 34 34 33 31 30 30 30 30 31 33 34 33 33
55 57 58 58 58 57 57 58 60 62 62 61 61 60 59 59 60 62 63 64 65 67 69 71 72 72 73 72 72 71 70 70 70 69 69 69 69 68 66 65 64 64 64 63 63 62 61 60 59 59 58 57 57 56 55 54 53 51 48 45 42 40 40 40 40 39 39 39 38 36 35 34 33 32 31 30 29 30 30 31 32 33 34 34 34
56 58 60 61 62 61 61 62 63 64 63 62 62 62 62 61 61 62 64 65 66 69 71 71 71 72 73 72 71 70 70 70 69 69 69 68 67 65 64 62 62 61 61 61 60 59 59 58 57 57 56 56 55 54 52 51 49 46 43 40 39 39 39 38 38 38 37 36 35 34 33 33 31 29 29 30 29 30 30 31 32 32 33 33 33
58 60 62 63 64 64 64 65 66 65 64 63 63 63 62 61 61 63 64 66 68 70 71 70 71 72 71 70 70 70 70 70 69 68 67 65 63 62 61 59 59 58 58 58 57 56 56 55 55 55 54 53 52 51 49 46 43 41 39 38 38 38 37 36 36 35 34 34 34 34 32 32 30 28 28 29 29 28 28 29 30 31 32 32 32
61 64 64 64 64 64 64 65 65 64 63 62 62 60 59 62 64 65 66 67 68 70 70 70 71 70 70 70 70 70 70 68 67 65 63 61 60 59 58 57 56 55 55 55 54 54 53 53 53 53 52 51 49 46 43 41 39 37 36 36 36 35 35 35 35 34 33 33 34 33 31 31 29 28 28 26 25 26 27 28 29 30 31 31 31
65 66 65 64 63 63 63 62 60 58 58 59 61 62 64 66 67 67 68 68 69 69 70 70 70 70 71 71 70 69 67 65 63 61 60 59 58 57 56 55 54 53 52 52 51 50 50 51 51 51 49 47 44 40 37 35 34 33 33 34 34 34 34 35 36 35 34 33 33 32 31 30 29 28 25 23 23 24 26 27 28 29 30 30 30
65 64 62 61 60 59 58 57 56 57 59 62 64 66 68 68 68 69 69 68 68 68 69 69 70 70 70 69 68 66 64 62 61 59 59 58 57 56 54 52 51 50 49 48 47 47 48 49 49 47 44 41 38 34 31 29 30 31 32 33 34 34 35 35 35 34 34 33 33 32 30 29 28 27 24 22 22 23 24 26 27 29 30 30 29
61 60 60 60 59 59 60 61 63 65 66 66 67 67 68 68 68 68 68 67 67 67 68 69 70 69 68 66 64 63 62 61 59 58 57 57 56 54 51 50 49 48 47 45 44 45 46 47 45 41 39 35 30 27 27 28 30 31 32 33 34 34 35 35 35 34 34 33 33 31 30 29 28 26 24 23 22 22 23 24 26 27 28 29 29
63 64 65 66 67 68 68 69 69 69 68 68 68 68 68 68 68 68 68 67 67 67 68 68 67 66 64 63 62 61 60 59 58 57 56 55 53 50 49 48 47 46 44 42 42 43 43 41 38 36 33 28 23 25 29 30 31 31 33 33 34 35 35 35 34 34 33 33 32 30 29 28 28 27 25 24 23 22 23 24 24 25 26 27 28
65 66 67 68 69 70 71 70 70 69 69 69 68 67 67 67 68 68 68 67 67 68 67 66 64 63 63 63 61 60 59 58 57 55 54 52 50 48 48 46 45 43 41 40 41 41 38 35 33 30 26 21 22 29 32 32 32 33 34 34 35 35 35 34 34 33 33 32 31 29 28 28 28 27 27 26 25 24 23 24 24 24 25 26 27
64 66 67 68 69 69 70 70 70 69 68 68 67 66 67 67 68 67 67 67 67 66 64 63 63 63 63 62 60 59 58 57 55 53 51 49 48 47 46 44 42 39 38 38 38 35 33 30 27 24 20 21 27 33 34 35 35 35 36 36 36 36 35 35 34 33 33 31 30 28 27 27 28 28 27 26 25 25 24 24 24 25 25 26 26
64 65 66 67 68 68 68 68 68 67 66 65 65 66 67 67 66 66 66 66 64 63 63 63 62 62 61 60 59 57 56 55 53 51 49 47 46 45 43 40 37 36 35 34 32 30 28 25 23 21 20 25 32 36 37 37 37 38 38 37 36 36 35 35 34 33 32 30 28 27 27 27 28 28 28 26 25 25 24 24 25 25 26 26 27
63 65 66 66 67 67 66 66 66 66 66 66 67 67 66 65 65 65 64 62 61 61 62 62 62 60 59 58 57 56 55 53 51 50 47 46 44 41 38 35 33 32 31 28 26 25 23 22 22 20 23 31 35 37 39 39 40 39 38 37 36 35 35 35 34 32 30 29 27 26 26 27 28 29 29 28 26 25 25 24 25 26 27 27 28
63 64 65 65 65 66 66 66 66 67 68 68 67 66 64 63 62 62 61 60 60 62 63 63 61 58 57 56 56 55 53 51 50 48 45 42 39 35 33 31 29 27 23 21 20 20 21 22 22 22 28 35 37 39 41 41 42 40 39 37 36 35 34 33 32 30 28 26 25 25 26 27 28 28 29 29 28 27 26 26 26 26 27 28 28
62 63 64 64 64 64 65 65 65 66 66 66 65 63 61 60 59 59 59 61 62 63 63 62 59 57 54 54 53 52 50 48 47 44 40 36 32 30 29 26 22 19 17 17 18 20 22 22 22 26 34 38 39 41 42 42 42 40 38 36 35 33 31 30 29 27 26 25 24 24 25 26 27 28 28 28 28 28 27 27 27 27 28 28 28
62 63 63 63 63 63 63 64 64 63 62 60 59 58 58 58 59 61 62 63 64 62 60 56 53 49 48 47 46 45 45 44 42 38 34 29 26 26 23 19 16 15 15 17 19 21 22 22 25 31 37 39 41 41 41 41 39 38 36 34 32 31 30 28 27 27 26 24 24 24 25 26 26 27 27 28 28 28 28 28 27 28 28 28 28
61 61 61 62 61 61 60 60 59 58 57 56 56 56 58 59 61 62 61 59 56 51 46 42 39 38 38 38 38 38 39 37 34 31 27 24 23 22 18 14 14 15 16 17 20 21 22 24 30 36 39 40 40 40 39 37 35 34 34 33 32 31 30 29 28 27 26 25 24 24 24 24 25 25 26 27 27 27 28 28 28 28 28 27 27
59 58 58 58 58 57 57 56 56 56 55 55 55 54 53 52 51 49 46 42 39 38 34 31 32 33 33 32 31 31 30 28 26 24 22 21 21 20 17 14 16 17 17 19 21 22 24 29 36 40 41 40 38 37 35 34 32 32 32 32 31 30 29 28 27 27 25 24 23 22 23 23 24 25 25 26 26 27 27 27 27 27 27 27 26
55 54 54 55 55 53 51 50 49 48 46 44 42 40 36 35 34 32 31 30 33 35 31 29 30 31 31 28 26 25 23 22 20 19 19 20 20 19 17 17 19 20 19 22 24 24 27 34 40 41 39 37 35 33 32 31 31 30 30 30 29 29 28 28 26 25 23 20 20 22 23 23 24 24 24 24 25 25 26 26 26 26 26 26 25
50 49 47 49 49 46 44 44 42 37 33 30 29 28 27 28 27 27 29 33 37 35 29 26 28 30 30 26 24 22 19 18 17 17 18 20 19 17 18 19 21 21 21 25 27 26 31 39 41 38 35 33 32 32 31 30 29 29 29 29 29 28 28 28 26 23 20 20 22 24 23 22 22 22 23 23 23 24 24 24 24 24 23 23 22
46 46 47 49 48 46 44 46 43 37 34 28 27 27 25 25 27 31 36 40 40 34 29 29 30 30 29 26 24 21 18 16 16 17 18 19 17 16 19 21 22 22 24 29 28 27 35 40 36 32 31 31 32 32 31 29 29 30 29 29 29 28 27 27 24 20 20 22 22 21 20 19 19 19 20 20 21 21 21 22 22 22 21 21 21
46 49 50 46 42 42 43 44 38 31 33 33 33 34 33 32 35 40 42 43 42 37 34 34 32 30 29 28 25 22 19 17 17 18 19 18 17 18 21 22 23 24 28 30 27 30 37 36 30 29 31 32 32 31 30 29 29 30 29 29 28 27 26 24 21 19 21 20 18 17 17 17 17 17 18 18 19 19 20 20 21 21 21 20 20
39 46 48 42 38 42 46 48 41 31 29 32 36 40 42 42 43 45 44 42 40 39 39 36 33 30 29 28 25 22 21 18 18 19 19 19 19 20 21 22 24 26 29 29 27 32 35 30 27 30 31 32 31 30 29 29 29 29 28 28 28 26 23 21 20 20 19 18 17 17 18 19 19 18 18 18 19 19 20 21 21 22 22 21 20
30 36 42 41 41 48 53 55 51 45 41 40 42 45 45 44 45 46 45 41 37 38 40 37 33 30 28 28 25 23 22 19 18 20 20 20 20 21 21 23 26 28 29 27 27 31 29 25 28 32 32 32 31 30 29 30 29 28 28 28 27 26 22 20 21 19 18 17 17 18 21 22 22 21 20 20 20 20 21 21 22 23 23 22 21
35 32 33 34 36 42 49 54 54 53 52 52 52 51 48 45 45 46 45 44 42 40 38 37 35 31 29 30 27 25 24 22 20 20 20 21 21 22 22 25 28 29 27 25 26 27 24 25 30 32 32 32 30 30 30 29 29 28 28 28 28 27 22 21 20 18 17 17 16 18 22 25 25 25 24 24 24 24 25 25 24 23 23 23 23
45 38 30 29 33 35 39 46 51 53 53 55 55 53 51 48 48 49 48 47 47 45 42 40 38 34 32 32 32 30 27 25 23 21 22 23 24 23 24 27 28 26 24 22 23 22 22 26 30 32 32 31 30 29 29 29 29 28 28 27 27 25 20 19 20 19 19 18 17 20 23 26 26 26 26 26 26 26 26 26 25 24 24 24 25
53 50 40 34 35 36 38 41 43 47 50 52 53 52 51 51 51 51 51 50 48 47 46 44 41 36 33 33 35 35 30 27 26 25 25 26 26 24 25 27 25 23 20 19 20 21 23 27 30 32 32 30 29 29 28 29 28 28 27 25 25 21 18 18 19 20 20 19 20 21 23 23 23 23 23 22 22 23 24 24 23 22 22 22 23
58 58 52 45 42 42 44 46 42 39 42 46 48 48 49 50 50 50 52 53 50 46 45 43 39 36 35 35 36 35 30 29 29 29 28 28 28 26 27 27 24 21 17 16 19 21 24 27 30 31 31 29 28 28 28 28 28 28 25 23 22 19 17 17 18 19 17 16 19 21 20 20 20 22 21 20 21 23 23 21 19 18 18 18 18
62 61 57 54 52 48 48 50 46 42 41 43 45 46 47 47 49 51 54 55 53 50 46 43 40 38 37 37 37 34 32 32 32 32 31 30 29 28 28 26 23 20 15 15 20 22 24 27 29 31 31 29 27 27 27 28 27 26 25 22 21 19 18 19 18 17 14 13 19 24 23 21 21 22 20 19 21 23 22 19 18 18 17 16 15
63 63 61 59 59 57 53 51 51 52 53 54 53 51 51 50 50 51 53 55 57 55 50 46 44 42 40 40 39 37 35 34 33 33 34 33 30 29 29 25 21 19 16 17 21 23 25 27 29 31 31 28 27 26 27 27 26 26 26 24 21 19 20 22 20 17 13 15 19 24 27 26 24 22 20 19 21 23 21 20 20 19 17 15 14
62 63 64 63 63 62 59 56 54 58 62 65 63 59 57 55 52 51 52 54 58 58 52 47 46 46 45 43 41 38 36 34 33 32 33 33 32 30 27 22 20 19 18 20 22 23 25 27 29 31 30 29 26 26 26 27 26 26 26 25 22 22 23 24 22 18 15 17 19 21 26 28 26 24 22 21 21 22 22 21 21 20 17 15 15
61 63 64 65 65 63 61 59 58 60 63 66 66 65 62 59 57 55 53 54 56 58 54 49 46 45 45 43 41 39 37 36 34 32 32 33 33 30 25 21 21 19 19 21 22 23 26 28 30 30 30 28 25 25 25 26 27 26 25 25 24 25 26 25 23 20 17 19 21 22 24 27 26 24 23 22 21 22 22 22 22 20 18 17 17
62 62 62 63 65 65 62 60 59 60 62 65 68 68 67 65 62 55 51 50 52 54 55 52 47 44 44 44 42 39 38 36 32 31 31 33 32 29 26 24 23 21 21 22 23 24 26 28 29 29 29 26 24 24 24 26 27 26 25 25 27 27 27 26 24 21 20 22 23 24 25 26 25 23 22 22 20 21 22 22 22 21 19 18 18
63 62 60 58 59 59 58 58 58 58 60 64 66 68 67 65 61 54 50 51 51 52 53 52 47 43 44 43 41 38 36 33 30 31 32 34 32 29 27 25 24 23 23 24 23 25 26 27 29 29 28 25 23 23 24 26 26 26 26 27 28 28 28 27 25 22 22 23 23 24 26 25 24 23 22 20 19 20 21 21 21 21 20 19 18
65 65 63 60 58 58 58 58 56 55 56 59 62 63 62 59 55 51 50 53 53 52 52 50 46 42 41 41 39 37 35 33 32 34 35 35 33 30 28 26 25 25 25 24 24 26 26 27 28 28 28 25 23 22 23 25 26 27 27 27 28 28 27 27 25 24 24 24 22 22 24 24 23 24 23 19 18 19 20 20 20 20 20 18 17
66 67 67 67 66 66 65 63 60 57 57 56 57 58 58 54 50 48 49 53 55 53 50 45 42 39 39 38 37 37 36 34 34 35 36 35 32 29 27 27 26 25 24 24 25 27 26 27 28 28 28 24 22 22 22 23 25 27 28 27 27 26 26 26 26 26 26 26 26 25 26 26 25 25 24 20 18 19 20 18 18 19 18 17 16
65 66 67 69 69 69 68 65 63 62 59 52 43 42 43 39 38 42 46 51 53 51 45 40 38 37 36 36 36 36 36 35 34 34 34 33 31 28 27 27 26 24 24 25 27 27 26 28 29 29 27 23 22 22 21 22 24 27 29 28 26 25 24 25 27 27 28 28 29 29 30 28 27 26 25 22 20 21 21 19 17 17 18 17 17
62 63 64 64 65 65 64 63 61 58 55 48 37 37 39 33 32 36 39 41 43 44 41 38 37 36 36 35 35 35 34 33 32 31 32 33 32 29 27 27 25 25 26 27 28 27 27 29 30 30 27 23 21 22 21 22 24 27 30 29 27 25 23 24 26 27 28 29 30 31 31 30 27 26 25 23 23 23 23 21 19 18 18 16 16
57 57 57 58 59 60 59 58 56 53 50 44 38 42 44 39 40 40 38 38 36 37 39 38 38 38 38 38 37 35 34 33 31 30 31 34 33 29 27 26 26 27 28 29 29 28 28 30 30 29 25 23 22 22 23 23 24 27 29 30 28 25 24 24 25 26 27 29 30 30 31 30 28 27 26 24 23 24 23 22 21 21 20 17 15
51 52 52 52 54 55 54 53 50 48 46 40 37 43 44 41 44 44 43 46 41 37 39 39 39 39 38 38 36 35 35 35 33 31 32 33 31 28 28 28 28 29 30 31 30 29 30 31 30 27 23 23 23 23 24 25 26 27 29 30 29 27 25 26 26 26 27 29 31 31 30 29 28 27 26 25 24 24 24 23 24 25 24 21 19
46 47 47 48 50 50 49 48 45 42 39 34 32 37 39 39 41 43 47 52 49 42 40 38 38 38 37 36 33 33 35 36 36 35 34 33 31 29 31 32 31 31 31 31 30 30 32 32 29 25 22 22 23 25 28 29 28 27 28 29 29 27 26 27 27 27 28 30 31 32 31 29 28 28 27 27 27 25 24 24 25 26 25 24 23
43 44 43 45 46 46 45 44 41 38 33 27 26 30 36 36 34 35 40 47 48 44 42 39 38 39 37 35 33 33 36 38 38 36 34 34 32 32 33 33 33 33 33 31 31 32 33 31 28 24 22 22 23 29 32 32 29 27 28 29 29 28 27 28 28 29 29 31 32 33 32 30 28 28 28 28 27 26 26 25 25 25 25 25 25
41 42 41 43 44 41 41 39 37 37 32 28 27 32 39 39 35 32 29 34 41 42 42 38 36 37 36 36 35 35 36 37 36 36 36 36 33 32 33 33 34 34 32 31 33 34 33 30 28 24 22 23 29 34 34 31 28 27 28 29 29 28 28 28 29 29 30 31 33 34 34 32 30 30 30 30 29 28 27 26 25 25 25 25 25
40 40 40 43 42 38 37 35 33 34 32 32 32 33 41 43 39 37 30 29 35 36 37 36 34 35 35 34 34 34 36 37 36 38 37 34 32 32 33 34 34 33 31 33 35 34 33 31 27 23 24 30 35 34 31 29 27 26 27 29 30 29 29 29 29 30 31 32 33 35 36 34 32 32 32 32 30 28 27 26 26 25 25 25 26
39 39 42 45 43 38 36 34 33 34 33 36 37 34 41 46 42 41 36 32 35 36 37 37 37 37 34 33 34 35 37 37 37 37 35 32 32 35 36 34 33 32 33 36 36 35 34 31 26 24 29 35 34 31 30 29 27 27 28 30 31 31 30 30 30 31 31 33 34 36 35 34 34 35 34 33 31 29 29 28 27 27 26 26 26
39 40 45 47 44 39 36 34 35 35 34 39 43 41 44 46 44 45 41 35 38 41 40 38 39 39 35 34 36 38 39 38 35 33 32 33 35 38 38 35 33 33 35 37 37 36 35 30 26 29 35 34 30 30 31 30 30 29 29 30 32 31 31 30 31 31 32 34 34 35 34 34 35 35 34 34 33 31 30 29 29 28 28 27 26
39 41 46 47 43 37 34 35 35 35 35 37 42 45 48 48 46 49 46 38 39 44 43 39 39 39 37 36 38 39 39 38 36 34 33 32 33 37 39 36 33 35 37 38 38 37 34 29 29 34 35 31 31 33 33 33 33 32 32 32 33 32 32 31 31 32 33 34 34 34 34 33 33 34 34 34 33 33 32 31 30 29 29 28 28
38 41 44 43 40 35 33 36 35 34 34 35 39 44 50 51 50 53 54 47 42 45 47 44 40 38 38 40 41 42 41 40 39 37 36 32 31 35 36 36 36 37 38 40 40 37 33 30 33 36 34 33 35 35 35 36 35 34 34 34 34 34 33 33 33 33 34 34 34 34 33 32 32 33 34 33 33 33 32 31 32 32 32 31 31
34 38 39 39 39 35 34 36 36 34 34 33 37 43 50 54 55 56 58 55 48 44 45 45 42 38 39 41 43 45 44 43 42 39 35 31 30 34 36 38 38 37 39 42 40 36 32 32 36 37 35 36 38 37 37 36 35 35 36 36 36 35 35 34 34 34 34 35 35 35 34 33 33 33 33 32 32 32 33 33 33 34 34 33 32
29 32 33 33 34 33 34 38 38 37 36 34 36 42 47 52 56 57 58 57 53 47 42 42 42 41 41 42 44 45 44 44 44 40 33 29 31 36 39 39 38 38 41 43 40 36 34 35 38 38 37 39 39 37 36 35 34 34 36 36 35 35 36 36 35 35 35 35 35 36 35 34 33 33 32 32 32 34 35 34 34 35 35 34 33
Wind_Direction
282 282 284 285 285 287 288 289 289 290 289 289 288 287 286 286 286 287 289 291 292 294 298 299 300 300 300 300 300 300 300 300 301 302 304 304 305 305 305 305 305 306 306 306 305 305 305 305 304 304 304 304 304 305 305 306 307 308 308 309 309 308 306 305 304 303 303 303 304 304 304 304 305 303 301 299 296 294 292 287 284 287 291 291 290
281 283 283 284 284 285 286 287 288 289 288 287 287 286 286 286 286 287 289 291 293 297 299 298 299 300 300 300 299 299 299 300 302 303 304 304 305 305 305 305 305 305 305 305 305 305 304 304 304 303 303 304 304 304 305 306 307 308 308 308 308 306 306 304 303 303 304 304 305 305 305 305 304 302 301 298 294 293 291 287 286 290 292 292 292
281 282 283 283 283 283 283 284 286 286 286 285 286 287 286 286 287 288 290 292 295 297 298 298 298 299 299 298 298 299 300 302 303 304 304 304 304 305 305 305 305 305 305 305 305 304 304 304 303 303 303 303 304 304 306 307 308 308 308 307 307 306 305 304 304 304 305 305 305 305 305 305 304 303 301 296 293 292 289 287 289 292 292 291 292
278 280 281 282 281 280 281 282 283 284 285 285 287 287 287 288 289 290 292 294 295 297 297 297 297 297 297 298 298 300 301 302 303 304 304 304 304 305 305 306 306 306 305 305 305 304 304 303 303 303 303 304 304 306 307 308 309 308 307 307 307 306 306 305 306 306 306 306 305 306 306 305 304 303 298 294 291 290 288 287 289 290 290 290 292
276 278 280 280 279 279 279 280 281 283 285 286 287 289 289 289 291 292 294 295 295 295 295 295 295 296 297 298 299 300 302 303 303 304 304 304 305 306 306 306 306 306 305 305 304 304 303 303 303 303 303 304 306 308 309 309 308 307 307 307 307 306 306 306 307 307 307 306 305 305 305 304 302 298 294 291 289 288 288 288 288 288 289 290 291
276 277 279 279 279 279 279 280 282 284 285 286 288 289 290 291 292 293 294 294 294 294 293 293 295 296 298 299 300 301 302 303 304 304 305 305 306 306 307 307 307 306 305 305 304 304 303 303 303 303 305 307 308 309 309 308 308 308 308 308 307 307 307 307 306 306 306 305 304 304 304 303 299 296 293 290 289 289 290 290 290 290 290 290 291
276 277 279 279 279 279 280 281 282 284 285 286 287 288 289 291 292 292 293 293 293 292 292 293 295 297 299 300 301 302 303 303 304 304 305 306 306 307 307 307 307 306 305 305 304 304 303 303 303 305 307 309 309 310 310 309 309 310 309 309 309 308 307 307 306 306 305 304 303 303 303 301 297 295 292 290 292 293 294 294 293 292 291 291 292
275 276 277 277 277 278 279 279 281 283 284 285 286 287 289 290 291 292 292 292 292 292 293 295 297 299 300 301 301 302 303 303 304 304 305 306 307 307 307 307 307 306 306 305 304 303 303 303 305 308 309 309 310 312 313 313 313 312 311 310 309 308 307 306 305 305 304 304 303 302 301 298 295 293 289 289 293 296 298 298 296 294 293 292 293
274 275 276 276 277 278 278 279 281 282 284 285 286 287 289 290 291 291 292 292 293 294 296 297 299 300 300 301 301 302 303 303 304 304 306 306 306 307 307 307 307 306 305 304 303 303 303 306 308 309 309 310 313 317 319 318 315 313 311 309 307 306 305 305 305 304 304 303 302 301 299 296 293 290 285 286 290 294 297 298 297 295 293 292 293
275 276 277 277 278 279 280 281 282 283 284 285 286 288 289 290 291 291 293 294 295 296 297 299 299 300 300 300 301 302 302 303 304 305 306 306 306 307 307 306 306 305 304 303 302 304 306 308 309 309 310 311 318 324 323 319 316 313 310 308 305 304 303 303 303 303 303 302 301 300 297 293 290 287 283 283 285 288 292 295 297 298 296 294 293
276 277 278 278 279 280 281 281 282 284 284 286 287 289 290 291 292 292 293 294 295 296 298 299 299 300 300 300 300 301 302 302 304 305 305 306 306 306 306 305 305 304 302 302 304 306 308 309 309 310 311 313 321 325 324 320 317 313 310 307 305 303 302 302 302 302 301 301 299 297 294 290 288 286 283 282 282 284 288 292 297 299 299 298 296
275 277 278 278 279 280 281 281 282 284 286 287 288 289 289 290 291 292 293 295 296 297 298 299 299 299 299 299 300 300 301 302 303 304 304 304 305 305 305 304 303 301 301 304 306 307 308 308 309 311 312 315 322 324 323 321 317 313 310 307 305 303 302 301 301 301 301 300 298 296 292 289 287 285 283 282 282 283 286 290 295 297 299 300 299
275 275 276 276 277 278 280 281 282 284 285 286 286 287 288 289 291 292 294 295 296 297 298 299 299 298 298 298 299 300 301 302 302 302 302 303 303 304 304 302 300 300 303 306 307 307 308 309 311 311 313 319 323 323 322 320 316 313 310 307 305 303 303 302 302 302 302 301 298 295 292 288 286 284 282 281 282 283 285 289 292 296 298 300 300
275 275 275 276 277 278 279 280 282 283 284 285 286 287 288 289 291 293 294 295 296 297 298 298 297 297 297 299 300 300 301 301 301 300 300 301 302 303 301 299 299 303 306 307 307 309 312 314 314 312 317 322 323 321 320 318 315 312 309 306 305 304 303 303 302 303 302 301 298 294 290 287 285 283 281 280 281 283 285 288 291 295 297 299 300
275 276 276 277 278 279 280 281 282 282 284 285 286 287 289 290 292 293 294 295 296 297 297 296 295 296 298 300 300 300 300 300 299 298 298 299 301 299 297 298 302 305 306 307 311 316 318 318 317 317 321 323 322 320 319 317 313 310 308 306 305 304 303 302 302 303 302 300 297 293 290 287 285 282 281 279 278 281 284 287 291 294 297 298 298
276 277 278 279 280 281 282 282 282 283 284 285 286 287 289 291 292 293 295 296 296 295 295 295 296 298 300 301 300 300 299 298 297 297 297 299 298 295 296 299 303 306 308 312 315 318 320 320 319 320 322 323 321 320 317 315 311 308 307 306 305 304 304 303 303 303 302 301 297 293 290 288 286 283 281 279 278 279 282 285 289 293 296 297 298
276 278 280 281 282 283 283 283 282 283 284 286 287 288 290 291 293 294 295 295 295 295 297 299 300 302 303 301 300 299 298 297 296 296 297 296 294 296 299 299 301 308 313 315 317 320 321 321 321 321 322 322 320 318 315 312 309 307 306 306 306 305 305 304 303 303 302 300 297 294 291 289 288 286 283 281 280 280 282 285 289 292 294 296 297
278 280 281 282 283 283 283 283 283 283 284 287 289 291 293 294 294 294 294 295 296 300 304 307 308 308 307 305 303 301 299 298 298 297 294 292 294 298 297 295 301 309 313 315 318 318 316 317 321 323 323 322 319 316 313 311 309 308 308 308 308 307 306 304 303 303 302 301 298 296 294 291 289 288 286 284 283 283 284 287 289 291 293 295 296
281 282 283 283 282 283 284 283 283 284 286 290 293 295 296 296 296 296 297 300 305 309 311 312 313 314 312 310 308 307 305 303 300 295 290 289 294 296 292 297 306 308 310 316 319 313 312 319 325 326 324 320 317 315 313 312 311 311 310 310 310 310 310 309 307 306 306 304 302 302 300 296 293 290 289 286 286 285 286 287 289 292 294 295 296
284 284 283 282 283 285 285 285 286 289 294 296 297 298 298 300 301 302 305 308 311 311 308 309 313 317 318 315 315 314 312 309 303 294 289 289 292 293 293 302 310 310 309 317 320 313 316 325 328 326 322 320 318 317 316 315 314 313 312 312 311 312 315 315 312 310 310 310 309 309 305 300 295 293 292 290 288 288 288 290 292 294 296 297 297
285 283 282 283 285 284 282 283 284 289 299 299 296 297 296 298 298 300 303 304 305 306 305 308 314 320 321 321 320 318 315 312 304 296 293 293 292 293 295 302 309 308 310 319 321 317 323 329 328 325 324 323 322 320 319 318 316 314 314 313 312 314 317 317 315 313 313 315 315 312 309 304 300 297 296 295 293 292 292 294 296 298 299 300 298
279 280 281 281 282 279 278 280 278 280 286 283 282 287 287 286 285 289 296 298 299 299 302 308 314 319 321 321 319 315 313 307 300 298 298 295 290 290 294 301 306 306 312 321 322 322 327 329 327 328 328 327 324 323 322 320 317 316 316 314 314 316 317 314 314 315 316 319 321 319 317 315 313 311 309 307 304 302 302 302 303 303 303 301 299
280 279 278 277 277 275 275 277 279 280 276 271 274 280 281 282 285 289 294 296 294 292 295 303 310 314 315 315 312 310 307 298 291 295 296 292 284 286 294 302 306 307 315 323 324 326 328 328 329 332 332 330 327 325 324 322 319 318 318 317 318 321 319 314 315 317 317 323 330 334 335 334 332 330 328 324 321 317 313 310 307 305 303 302 300
279 276 271 269 271 273 276 278 280 281 273 271 278 283 285 286 289 291 296 298 295 292 294 299 305 306 308 309 308 304 302 294 286 288 289 288 284 286 293 301 307 312 318 323 325 327 326 327 333 336 335 334 331 327 325 323 322 320 319 321 324 326 322 317 319 317 316 325 336 340 341 340 337 335 334 332 328 324 318 312 308 304 302 302 301
260 268 270 272 275 274 274 276 277 275 272 271 277 282 283 285 287 289 293 295 294 296 296 296 300 300 300 304 305 301 297 292 284 284 284 285 284 286 289 296 307 315 319 322 325 325 323 326 333 336 337 337 333 330 328 326 323 320 320 324 327 327 323 320 319 316 317 329 336 333 332 334 335 334 333 331 328 325 321 317 312 307 302 300 298
253 266 276 281 282 277 272 272 273 272 269 268 272 275 275 278 283 285 288 288 288 293 293 293 295 293 293 296 299 297 291 287 283 279 280 282 281 282 285 293 306 315 317 321 324 322 320 325 331 335 337 338 336 333 331 328 324 322 323 325 329 330 325 320 320 321 324 329 330 326 326 329 330 329 327 324 322 319 318 316 313 307 302 298 294
254 263 273 275 274 276 276 275 272 269 268 268 270 271 270 273 279 281 283 285 286 288 289 290 292 289 287 289 292 293 285 281 283 280 279 280 278 279 285 293 304 311 316 322 323 320 320 325 331 334 337 338 338 335 333 328 324 326 327 329 333 331 326 323 324 324 321 322 327 326 323 322 322 320 318 316 315 316 316 316 314 308 302 297 293
253 255 261 264 265 270 276 280 276 269 268 269 269 270 270 273 276 278 279 281 283 286 286 288 289 286 283 282 286 289 281 275 279 280 280 278 276 279 284 292 301 307 315 323 322 321 323 327 331 335 338 339 339 338 334 328 327 332 333 334 336 332 328 326 321 318 317 325 329 323 321 322 325 326 323 321 322 322 322 320 317 313 308 302 297
257 257 258 257 259 265 270 275 277 272 268 269 270 270 272 274 276 276 276 277 278 281 284 287 288 283 280 279 282 286 280 273 275 276 276 275 275 277 282 289 297 304 309 316 322 325 325 327 332 337 339 339 340 341 334 329 332 337 338 336 334 330 325 318 311 312 321 330 319 312 318 325 329 334 335 333 331 329 328 327 324 322 317 311 306
260 261 259 254 254 260 264 267 270 271 270 269 271 273 274 276 278 277 275 275 275 276 279 283 284 282 280 278 279 282 279 276 274 272 271 272 273 275 281 287 292 297 293 302 321 326 324 326 332 338 340 338 340 341 335 332 334 338 339 332 326 323 313 310 312 312 316 318 306 304 314 319 322 330 337 335 332 332 332 333 335 334 330 322 314
260 261 261 258 255 257 260 261 264 269 273 272 273 274 275 277 281 280 276 275 274 274 275 279 281 279 279 280 278 278 277 276 274 270 268 269 271 273 281 284 285 287 280 293 317 324 322 325 331 338 339 337 339 340 335 332 333 336 337 331 324 319 308 307 314 312 304 300 301 304 308 314 319 326 331 330 329 331 332 334 337 338 337 332 324
261 261 262 261 259 259 259 258 260 266 271 273 274 275 276 277 279 279 278 277 275 274 273 277 280 278 278 279 278 275 274 273 273 269 266 268 270 271 277 279 279 279 276 292 310 319 321 323 330 337 338 336 338 338 332 330 332 333 333 329 320 314 310 312 316 314 302 296 299 299 300 307 316 323 326 324 324 328 331 334 335 336 337 338 336
262 263 263 262 261 260 260 260 261 265 268 270 274 276 278 278 278 278 277 277 275 273 272 274 278 278 276 277 276 273 272 272 271 267 263 264 267 269 274 276 278 275 277 292 306 315 318 321 329 336 337 335 335 335 329 327 331 331 330 327 316 311 313 316 317 314 304 300 302 299 297 303 310 318 320 317 319 325 329 331 331 332 334 337 338
262 264 264 263 261 261 262 263 264 265 265 267 272 275 277 278 279 277 273 273 272 271 271 271 275 278 276 275 275 272 272 272 269 262 259 261 266 270 272 276 278 273 276 289 302 312 314 319 328 335 336 332 331 333 327 325 328 328 327 323 317 316 318 317 316 311 303 304 305 302 303 306 309 313 313 311 315 322 324 326 326 326 328 332 336
259 259 261 261 260 259 262 264 265 265 265 267 271 274 277 278 278 275 270 268 267 267 267 268 272 277 275 272 270 270 271 269 263 258 258 261 266 268 270 277 276 270 276 286 298 308 310 317 327 333 334 329 326 330 327 323 325 325 323 321 320 322 323 319 314 310 309 310 308 303 304 308 309 309 308 310 315 317 318 319 319 320 323 327 331
257 255 255 255 256 258 261 264 265 264 266 269 272 275 277 278 278 274 270 266 264 263 263 265 271 274 272 267 265 266 267 265 261 259 261 262 262 264 271 279 275 270 277 284 295 304 308 316 324 330 331 325 321 325 326 322 320 321 320 320 320 321 323 320 312 307 308 310 308 305 305 308 309 307 308 312 313 312 313 316 316 317 320 322 323
256 254 254 254 256 259 261 262 263 263 267 272 276 278 276 278 278 271 267 264 262 262 260 265 271 270 266 262 262 265 266 265 262 261 263 262 260 264 274 280 272 269 275 281 292 301 306 315 321 326 327 321 316 319 323 320 317 317 316 317 318 317 319 318 313 306 303 303 304 305 307 308 308 308 310 309 304 303 307 314 316 315 315 316 315
256 255 255 255 257 259 260 261 262 264 267 269 272 271 270 274 275 269 267 265 263 263 261 263 267 264 261 260 262 266 267 265 261 260 260 258 260 267 277 276 267 266 273 279 289 297 304 313 318 322 323 317 310 312 319 319 316 315 312 313 314 313 313 314 314 310 304 301 301 303 305 306 305 306 310 306 297 295 299 303 306 307 310 314 314
256 256 256 256 257 258 259 259 261 263 264 263 257 254 257 257 257 264 268 268 267 263 258 259 263 259 257 258 261 264 263 259 257 257 256 256 261 270 276 272 266 269 274 278 287 294 303 312 316 319 319 312 306 307 316 318 316 313 309 309 309 308 306 308 311 311 306 301 300 301 302 303 302 303 307 305 296 294 297 297 294 296 303 311 314
257 257 257 257 257 257 257 258 259 260 260 259 250 249 252 250 250 257 261 264 267 262 255 257 260 258 256 257 259 261 256 251 251 253 254 256 263 271 271 269 270 273 273 278 285 292 302 310 314 316 314 306 302 304 312 316 314 310 305 304 302 299 298 299 303 308 307 303 301 301 301 301 301 302 305 303 300 298 299 295 289 290 294 297 296
258 258 257 256 256 256 256 255 256 257 257 254 248 248 249 247 251 254 253 259 262 258 255 257 259 258 257 258 258 255 249 248 250 252 252 255 263 266 264 270 275 272 271 276 283 292 301 308 311 312 308 301 299 303 311 314 312 307 301 298 295 293 293 293 297 302 306 305 304 304 303 300 300 302 302 301 302 303 300 293 288 288 288 288 285
256 256 254 253 253 252 252 251 251 253 253 250 246 248 248 248 254 257 258 261 261 257 254 257 258 257 256 256 253 251 249 250 253 253 250 250 258 262 266 274 275 269 269 275 283 293 301 305 307 306 301 297 298 305 311 312 310 303 297 293 291 290 290 290 292 296 300 303 304 304 303 301 299 300 300 300 301 302 300 296 293 292 290 289 286
253 251 250 250 249 249 249 249 248 247 247 246 239 238 241 242 251 260 263 264 263 259 253 253 256 254 254 252 248 250 252 253 254 252 248 249 256 264 269 272 269 265 268 276 286 295 300 301 302 301 297 294 299 306 310 310 307 300 293 289 287 286 287 287 289 291 295 298 300 301 301 301 300 300 301 301 301 300 298 298 298 297 294 292 289
250 247 246 245 246 247 248 248 247 248 246 239 232 233 236 234 237 245 252 261 264 259 251 250 251 248 249 248 247 250 250 249 250 249 250 256 265 271 270 267 265 264 268 279 291 296 298 299 299 298 294 296 303 308 309 307 304 297 290 286 284 284 284 285 286 289 292 295 297 298 298 299 298 298 300 301 301 299 297 297 299 299 296 293 293
246 243 240 239 240 242 245 247 249 252 246 231 226 232 234 229 231 236 240 256 262 254 245 242 240 239 242 246 248 248 246 245 246 250 256 264 272 272 267 266 264 262 271 287 294 296 296 297 296 293 294 301 306 308 307 304 301 295 289 285 284 284 284 284 285 287 289 292 294 296 297 297 296 296 299 300 300 298 296 295 295 296 296 295 295
241 238 235 233 235 239 244 248 250 251 244 229 224 227 231 230 233 235 235 247 255 248 241 236 233 237 244 249 249 247 245 245 246 252 259 266 270 267 265 264 261 265 281 292 295 295 295 294 291 291 299 305 308 307 306 303 300 296 290 285 283 283 283 283 284 286 287 289 292 295 296 296 295 296 298 299 300 298 295 293 293 294 295 296 297
237 234 232 231 233 239 243 247 249 248 242 232 227 226 228 229 233 233 230 239 249 249 245 239 237 240 246 250 249 246 245 243 245 252 260 264 265 263 262 260 261 274 289 294 293 292 292 289 288 296 304 308 308 307 305 302 298 296 292 286 282 281 280 280 281 283 285 287 290 293 294 294 294 295 296 296 298 298 296 294 293 293 294 295 296
234 230 230 229 231 235 240 245 247 246 243 237 232 228 226 227 231 230 227 233 246 249 249 246 243 243 245 247 247 246 243 242 245 254 263 267 264 261 260 259 267 283 291 292 290 288 287 285 290 301 306 309 309 306 304 301 298 295 291 286 281 280 279 278 279 280 283 285 288 291 293 293 293 295 296 296 297 299 299 298 296 295 295 295 294
233 231 230 227 227 230 237 246 248 247 246 242 236 229 226 228 232 232 229 232 243 250 250 248 246 243 242 244 246 247 246 246 249 257 266 268 261 259 258 260 272 285 288 286 284 283 281 283 293 302 307 311 310 306 304 303 299 294 290 284 280 279 278 278 278 280 281 283 285 289 291 292 292 293 295 296 297 299 299 299 299 299 298 297 296
236 234 231 226 225 227 234 244 249 251 249 245 238 231 229 231 236 238 237 237 242 249 251 247 245 244 243 244 247 248 249 252 256 262 267 263 257 256 257 262 275 284 284 281 279 277 276 283 295 301 306 312 311 307 306 304 300 294 289 283 280 279 279 278 278 279 280 281 283 286 288 289 290 291 293 293 292 293 294 296 299 300 299 298 297
241 237 233 228 228 234 240 243 245 248 249 246 239 234 233 234 238 241 241 241 242 246 251 248 246 245 245 246 248 249 251 255 261 265 263 255 252 253 257 265 276 283 281 277 274 271 273 285 296 299 304 311 309 306 306 305 301 295 289 285 281 280 279 278 278 278 279 279 281 284 286 287 287 287 288 287 286 285 287 291 295 296 296 296 295
Height
10912 10911 10912 10911 10911 10911 10911 10910 10909 10908 10907 10907 10906 10906 10905 10904 10903 10903 10902 10901 10900 10899 10899 10897 10895 10893 10892 10890 10889 10887 10885 10884 10883 10882 10880 10877 10875 10873 10871 10869 10866 10863 10860 10857 10854 10851 10849 10847 10845 10842 10840 10837 10835 10832 10830 10828 10826 10824 10821 10819 10817 10815 10812 10810 10808 10807 10806 10805 10803 10802 10800 10799 10797 10796 10794 10792 10791 10789 10788 10787 10786 10785 10785 10784 10783
10909 10908 10909 10908 10908 10908 10907 10906 10905 10904 10903 10903 10902 10902 10901 10900 10900 10899 10898 10897 10896 10895 10894 10892 10890 10888 10887 10886 10884 10882 10881 10880 10879 10878 10876 10873 10871 10869 10867 10865 10862 10858 10855 10852 10849 10847 10844 10842 10840 10838 10835 10833 10830 10828 10826 10824 10822 10819 10817 10814 10812 10811 10809 10808 10806 10804 10803 10801 10800 10798 10797 10796 10794 10793 10791 10789 10788 10787 10786 10784 10783 10783 10782 10782 10781
10907 10905 10905 10905 10905 10905 10903 10902 10901 10900 10900 10899 10898 10898 10897 10897 10896 10895 10894 10894 10893 10891 10890 10887 10885 10883 10881 10881 10879 10878 10876 10876 10875 10873 10871 10869 10866 10865 10863 10860 10858 10854 10851 10848 10845 10842 10839 10837 10835 10833 10831 10829 10826 10824 10822 10820 10818 10815 10813 10810 10808 10807 10805 10804 10803 10801 10800 10798 10796 10794 10793 10792 10792 10790 10788 10786 10785 10784 10783 10782 10781 10780 10780 10780 10779
10904 10901 10901 10902 10901 10901 10899 10898 10897 10896 10896 10895 10895 10894 10893 10893 10893 10892 10891 10890 10888 10886 10884 10882 10880 10878 10876 10876 10874 10873 10872 10871 10870 10869 10866 10864 10862 10860 10858 10856 10853 10850 10847 10844 10841 10838 10835 10832 10830 10828 10827 10825 10822 10820 10818 10816 10813 10811 10809 10807 10805 10803 10802 10801 10799 10798 10796 10795 10793 10791 10790 10789 10789 10789 10786 10784 10783 10782 10781 10780 10779 10778 10778 10778 10777
10900 10897 10897 10897 10897 10896 10895 10894 10893 10893 10892 10892 10891 10890 10889 10889 10888 10888 10887 10886 10883 10881 10879 10877 10875 10873 10872 10871 10870 10869 10868 10867 10865 10864 10862 10860 10858 10856 10854 10852 10849 10846 10843 10839 10837 10834 10831 10828 10826 10824 10822 10820 10818 10816 10814 10812 10810 10807 10806 10804 10802 10800 10799 10798 10797 10796 10794 10791 10790 10788 10787 10786 10786 10787 10784 10782 10781 10780 10779 10778 10777 10777 10776 10776 10775
10894 10893 10893 10893 10893 10892 10891 10890 10889 10889 10888 10887 10887 10886 10885 10884 10884 10883 10883 10882 10879 10876 10874 10873 10871 10869 10867 10866 10865 10864 10863 10862 10861 10859 10857 10855 10854 10852 10850 10848 10845 10841 10838 10835 10833 10830 10827 10824 10821 10820 10818 10816 10815 10813 10811 10808 10806 10804 10803 10801 10799 10798 10796 10795 10794 10793 10791 10789 10787 10786 10784 10783 10782 10782 10781 10779 10778 10777 10776 10776 10775 10775 10774 10774 10773
10889 10888 10889 10888 10888 10887 10886 10886 10885 10884 10884 10883 10883 10882 10880 10879 10879 10878 10877 10877 10875 10872 10869 10868 10866 10864 10863 10861 10860 10859 10858 10857 10856 10854 10852 10851 10850 10848 10846 10843 10840 10837 10834 10831 10828 10825 10823 10820 10817 10816 10814 10813 10811 10809 10808 10806 10804 10802 10800 10799 10797 10795 10794 10792 10790 10788 10787 10786 10784 10783 10781 10780 10779 10778 10777 10776 10775 10775 10774 10773 10773 10772 10772 10771 10770
10884 10884 10884 10883 10882 10882 10881 10881 10880 10880 10880 10879 10878 10877 10876 10875 10874 10873 10872 10871 10870 10867 10865 10864 10862 10860 10858 10857 10856 10855 10854 10853 10851 10850 10848 10847 10845 10843 10841 10838 10836 10833 10830 10827 10825 10822 10819 10816 10814 10812 10811 10809 10808 10806 10805 10803 10802 10800 10798 10796 10795 10793 10791 10789 10787 10785 10784 10782 10781 10780 10778 10777 10776 10775 10774 10774 10773 10772 10772 10771 10770 10770 10769 10768 10768
10879 10879 10879 10877 10877 10876 10876 10876 10875 10875 10875 10875 10874 10873 10872 10870 10869 10867 10867 10866 10865 10863 10861 10859 10858 10856 10854 10852 10851 10851 10849 10848 10847 10846 10845 10843 10841 10839 10837 10834 10831 10829 10826 10823 10821 10818 10815 10813 10811 10809 10808 10806 10805 10804 10803 10801 10799 10798 10796 10794 10792 10790 10788 10786 10784 10782 10780 10779 10778 10776 10775 10774 10773 10773 10772 10771 10770 10770 10769 10769 10768 10767 10766 10766 10765
10874 10874 10873 10872 10871 10870 10870 10870 10870 10870 10870 10870 10869 10868 10867 10865 10864 10862 10861 10861 10860 10859 10858 10856 10854 10852 10850 10848 10848 10848 10846 10844 10843 10842 10841 10839 10837 10835 10833 10830 10827 10825 10822 10819 10817 10815 10813 10810 10808 10807 10805 10804 10803 10801 10800 10798 10797 10795 10793 10791 10789 10787 10785 10783 10781 10779 10777 10776 10774 10773 10772 10771 10770 10770 10769 10768 10768 10767 10767 10766 10765 10765 10764 10763 10762
10870 10868 10866 10865 10865 10864 10864 10865 10865 10865 10865 10865 10864 10863 10862 10860 10858 10857 10857 10857 10856 10855 10854 10852 10850 10847 10845 10844 10844 10844 10842 10840 10839 10838 10837 10835 10833 10831 10828 10826 10823 10820 10818 10815 10813 10812 10810 10808 10806 10805 10803 10802 10801 10799 10797 10795 10794 10792 10790 10788 10786 10784 10782 10780 10778 10777 10775 10773 10771 10770 10769 10768 10768 10767 10766 10766 10765 10764 10764 10763 10763 10762 10761 10761 10760
10864 10862 10860 10859 10858 10858 10859 10859 10860 10860 10860 10860 10859 10858 10856 10855 10854 10854 10854 10854 10853 10851 10850 10848 10845 10843 10841 10840 10840 10840 10838 10837 10835 10833 10832 10831 10829 10826 10824 10821 10819 10817 10814 10812 10810 10808 10807 10805 10804 10803 10802 10800 10799 10797 10795 10793 10790 10788 10786 10784 10781 10780 10778 10776 10775 10773 10772 10770 10768 10767 10766 10765 10765 10764 10764 10763 10762 10762 10761 10761 10760 10760 10759 10758 10758
10859 10857 10855 10854 10854 10854 10855 10855 10856 10856 10856 10855 10854 10853 10852 10851 10851 10851 10851 10850 10849 10847 10845 10843 10841 10839 10837 10836 10836 10835 10834 10833 10831 10829 10828 10826 10824 10822 10819 10817 10815 10813 10811 10809 10807 10805 10804 10803 10802 10801 10800 10798 10796 10794 10792 10790 10788 10785 10782 10780 10778 10775 10774 10772 10770 10769 10768 10766 10765 10764 10763 10763 10762 10761 10761 10760 10760 10760 10759 10759 10758 10757 10756 10756 10755
10853 10850 10849 10849 10850 10850 10851 10852 10852 10852 10851 10850 10849 10848 10848 10849 10848 10848 10847 10846 10845 10843 10841 10838 10836 10835 10834 10833 10832 10831 10830 10829 10826 10824 10823 10822 10820 10817 10815 10813 10812 10810 10808 10806 10804 10803 10802 10801 10801 10800 10798 10796 10794 10792 10789 10787 10784 10782 10779 10777 10775 10772 10770 10768 10767 10765 10764 10763 10762 10761 10760 10760 10759 10759 10758 10758 10758 10757 10757 10756 10756 10755 10754 10753 10753
10847 10844 10844 10845 10845 10846 10847 10848 10848 10847 10846 10846 10845 10845 10846 10846 10845 10844 10843 10842 10840 10838 10835 10833 10832 10831 10830 10829 10828 10827 10826 10825 10822 10820 10819 10817 10815 10813 10811 10810 10809 10807 10805 10804 10802 10801 10801 10800 10799 10798 10796 10793 10791 10789 10786 10783 10780 10778 10776 10774 10772 10770 10768 10766 10764 10763 10761 10760 10759 10758 10758 10757 10757 10756 10756 10755 10755 10755 10754 10754 10753 10753 10752 10751 10750
10841 10840 10840 10841 10841 10842 10843 10843 10843 10842 10842 10841 10842 10843 10843 10842 10841 10839 10838 10837 10835 10833 10831 10829 10828 10828 10827 10826 10824 10823 10821 10820 10818 10816 10815 10814 10812 10809 10808 10807 10805 10804 10803 10802 10801 10800 10799 10798 10797 10795 10793 10791 10788 10786 10783 10780 10777 10774 10773 10771 10769 10768 10766 10764 10762 10761 10759 10758 10757 10756 10755 10754 10754 10754 10753 10753 10753 10752 10752 10751 10751 10750 10750 10749 10748
10837 10837 10836 10837 10837 10838 10838 10838 10838 10837 10838 10838 10839 10839 10839 10838 10836 10835 10834 10833 10831 10829 10827 10826 10825 10825 10824 10821 10820 10819 10817 10816 10814 10812 10811 10811 10809 10806 10805 10804 10803 10801 10801 10800 10799 10798 10797 10796 10795 10793 10791 10788 10785 10783 10780 10776 10773 10771 10769 10768 10767 10765 10764 10762 10760 10758 10757 10756 10755 10754 10753 10752 10751 10751 10751 10750 10750 10750 10749 10749 10749 10748 10747 10746 10746
10832 10833 10833 10832 10832 10833 10833 10833 10833 10833 10833 10834 10835 10835 10835 10834 10832 10831 10830 10829 10827 10825 10824 10823 10822 10822 10820 10818 10816 10815 10813 10812 10811 10809 10808 10808 10806 10804 10802 10802 10800 10799 10799 10798 10797 10796 10795 10794 10793 10791 10788 10785 10782 10780 10777 10773 10771 10768 10766 10765 10764 10763 10762 10760 10758 10757 10755 10754 10753 10752 10751 10750 10749 10749 10749 10748 10748 10747 10747 10746 10746 10745 10745 10744 10744
10829 10830 10828 10828 10827 10828 10828 10827 10827 10827 10828 10830 10831 10831 10830 10829 10827 10827 10826 10825 10824 10822 10821 10820 10820 10819 10817 10816 10814 10812 10810 10809 10808 10807 10806 10806 10804 10802 10801 10800 10799 10798 10797 10796 10795 10794 10793 10792 10790 10787 10785 10782 10780 10777 10774 10771 10769 10767 10764 10763 10761 10761 10759 10758 10757 10755 10753 10752 10751 10750 10749 10748 10747 10747 10746 10746 10745 10745 10744 10743 10743 10742 10742 10741 10741
10825 10825 10823 10821 10821 10822 10821 10821 10821 10822 10825 10827 10828 10827 10826 10825 10824 10824 10823 10822 10821 10820 10819 10818 10817 10816 10815 10813 10811 10810 10808 10806 10806 10805 10804 10804 10802 10800 10799 10799 10798 10797 10796 10794 10793 10792 10790 10789 10787 10785 10782 10779 10777 10774 10772 10770 10768 10766 10763 10761 10759 10759 10758 10756 10755 10753 10752 10751 10750 10749 10747 10746 10745 10745 10744 10743 10743 10742 10742 10741 10741 10740 10740 10739 10739
10820 10818 10816 10815 10816 10816 10815 10814 10815 10819 10822 10824 10824 10823 10822 10822 10822 10822 10821 10820 10819 10818 10817 10816 10815 10813 10812 10811 10809 10808 10806 10804 10804 10803 10803 10802 10800 10798 10798 10797 10797 10795 10794 10792 10790 10789 10787 10786 10784 10782 10779 10777 10775 10773 10771 10769 10767 10764 10762 10759 10758 10757 10756 10754 10753 10751 10750 10749 10748 10747 10745 10744 10743 10742 10742 10741 10740 10740 10739 10739 10739 10738 10738 10738 10737
10816 10814 10810 10809 10811 10810 10808 10806 10810 10817 10820 10821 10821 10820 10819 10820 10820 10819 10818 10817 10816 10816 10814 10813 10812 10811 10810 10809 10807 10806 10804 10802 10802 10802 10801 10800 10798 10797 10796 10796 10795 10794 10792 10790 10788 10787 10785 10783 10781 10779 10777 10775 10773 10772 10770 10768 10765 10763 10760 10757 10756 10756 10754 10752 10750 10749 10748 10747 10746 10745 10744 10743 10741 10741 10740 10739 10738 10738 10737 10737 10737 10736 10736 10736 10736
10814 10810 10804 10805 10806 10804 10801 10801 10808 10814 10815 10816 10817 10817 10817 10817 10817 10816 10815 10813 10813 10814 10812 10811 10810 10809 10807 10806 10805 10804 10802 10801 10800 10799 10799 10798 10797 10796 10795 10794 10794 10792 10790 10788 10787 10785 10783 10781 10779 10777 10775 10773 10772 10770 10769 10767 10764 10760 10757 10755 10754 10754 10752 10749 10749 10748 10746 10745 10744 10743 10742 10741 10740 10739 10739 10738 10737 10736 10736 10736 10735 10735 10735 10735 10735
10812 10804 10798 10802 10805 10801 10798 10799 10805 10811 10811 10812 10812 10813 10813 10813 10813 10812 10811 10809 10810 10810 10810 10809 10807 10806 10805 10804 10802 10801 10800 10799 10798 10797 10797 10796 10795 10794 10794 10793 10792 10791 10789 10787 10785 10784 10781 10779 10777 10775 10773 10772 10770 10769 10767 10765 10762 10758 10755 10753 10752 10752 10750 10748 10747 10746 10744 10743 10742 10741 10741 10740 10739 10738 10738 10737 10736 10736 10735 10735 10734 10734 10734 10734 10733
10808 10802 10797 10801 10805 10801 10798 10797 10800 10805 10807 10807 10807 10808 10809 10809 10809 10808 10808 10807 10807 10807 10807 10806 10805 10804 10802 10801 10800 10799 10798 10797 10796 10795 10795 10794 10793 10793 10792 10791 10790 10788 10787 10785 10784 10782 10780 10777 10775 10773 10771 10770 10768 10767 10766 10763 10759 10755 10753 10752 10750 10749 10748 10746 10745 10744 10743 10741 10740 10740 10739 10739 10738 10737 10737 10736 10735 10735 10734 10734 10733 10733 10732 10732 10732
10804 10801 10798 10801 10802 10800 10798 10795 10796 10799 10801 10802 10802 10803 10804 10805 10805 10804 10804 10803 10804 10804 10804 10804 10803 10802 10800 10798 10797 10796 10795 10794 10794 10793 10793 10792 10791 10791 10790 10789 10787 10786 10785 10784 10783 10781 10778 10776 10773 10772 10770 10769 10767 10765 10764 10760 10756 10753 10752 10751 10749 10747 10747 10745 10744 10743 10741 10740 10739 10738 10738 10737 10736 10736 10735 10735 10734 10733 10732 10732 10731 10731 10730 10730 10730
10802 10798 10797 10799 10798 10797 10796 10795 10794 10795 10796 10797 10796 10797 10799 10801 10801 10800 10800 10799 10800 10801 10801 10800 10800 10799 10797 10796 10795 10794 10792 10792 10792 10791 10790 10790 10789 10788 10788 10787 10785 10784 10783 10782 10781 10779 10777 10774 10772 10770 10769 10767 10766 10764 10762 10758 10754 10752 10751 10750 10748 10746 10745 10744 10742 10741 10740 10739 10738 10737 10737 10736 10736 10735 10734 10733 10732 10731 10730 10729 10729 10728 10728 10727 10727
10796 10794 10794 10795 10794 10794 10794 10793 10792 10792 10793 10792 10791 10792 10794 10796 10796 10796 10795 10794 10796 10798 10797 10796 10796 10796 10794 10793 10792 10791 10790 10789 10789 10788 10787 10786 10786 10786 10786 10785 10784 10783 10781 10781 10779 10777 10775 10772 10770 10768 10767 10766 10765 10763 10760 10756 10753 10752 10751 10749 10747 10745 10743 10743 10741 10739 10738 10738 10737 10736 10736 10735 10735 10734 10733 10732 10731 10729 10728 10727 10726 10726 10725 10724 10724
10787 10787 10789 10790 10790 10790 10791 10791 10791 10790 10789 10787 10787 10788 10790 10791 10792 10792 10790 10790 10792 10794 10794 10793 10793 10793 10792 10790 10788 10787 10787 10787 10786 10785 10784 10783 10783 10783 10783 10782 10782 10781 10780 10779 10778 10775 10773 10770 10768 10766 10766 10765 10764 10762 10758 10755 10753 10751 10750 10748 10746 10744 10741 10740 10740 10739 10737 10738 10737 10735 10735 10734 10734 10733 10732 10730 10729 10728 10727 10726 10725 10724 10723 10722 10721
10779 10780 10783 10784 10784 10786 10787 10789 10789 10787 10785 10783 10783 10784 10785 10786 10788 10787 10786 10785 10787 10789 10790 10790 10790 10789 10788 10786 10785 10784 10784 10783 10783 10782 10781 10780 10780 10781 10780 10780 10780 10779 10779 10778 10776 10773 10771 10768 10766 10764 10763 10763 10762 10760 10757 10754 10753 10751 10749 10748 10746 10743 10739 10738 10739 10738 10737 10738 10736 10734 10733 10733 10733 10732 10731 10729 10728 10727 10726 10724 10723 10722 10721 10720 10720
10773 10775 10776 10777 10779 10781 10783 10785 10785 10783 10781 10778 10778 10779 10780 10782 10784 10783 10781 10781 10781 10783 10786 10787 10786 10785 10784 10783 10781 10780 10780 10780 10779 10778 10777 10777 10777 10778 10778 10778 10777 10777 10777 10776 10774 10772 10770 10767 10764 10763 10761 10761 10760 10758 10755 10753 10752 10750 10748 10746 10744 10742 10738 10737 10737 10737 10737 10737 10736 10733 10732 10731 10732 10731 10730 10728 10727 10726 10725 10724 10722 10721 10720 10719 10719
10768 10769 10769 10771 10772 10774 10777 10780 10780 10778 10775 10772 10772 10773 10775 10778 10780 10779 10778 10776 10775 10777 10781 10782 10782 10780 10780 10780 10778 10777 10776 10776 10776 10775 10774 10774 10774 10775 10776 10775 10775 10774 10774 10773 10772 10770 10768 10765 10763 10761 10759 10759 10759 10757 10754 10752 10751 10749 10747 10745 10742 10739 10737 10737 10737 10736 10736 10735 10734 10733 10731 10730 10730 10730 10729 10727 10726 10725 10724 10722 10721 10720 10719 10719 10718
10762 10761 10762 10764 10765 10767 10770 10774 10775 10773 10770 10767 10765 10766 10769 10772 10774 10775 10774 10772 10771 10771 10775 10777 10777 10776 10776 10775 10774 10772 10772 10772 10772 10772 10771 10771 10771 10772 10773 10773 10772 10772 10772 10771 10769 10768 10766 10763 10761 10759 10758 10757 10757 10756 10752 10750 10749 10748 10745 10743 10740 10738 10738 10737 10736 10735 10734 10733 10733 10732 10730 10729 10729 10728 10727 10726 10725 10724 10723 10721 10720 10719 10719 10718 10718
10754 10754 10755 10756 10757 10760 10763 10767 10768 10767 10765 10763 10760 10761 10764 10766 10768 10769 10769 10767 10766 10767 10769 10771 10773 10772 10771 10770 10769 10768 10768 10769 10769 10768 10768 10768 10768 10769 10770 10770 10770 10770 10769 10768 10767 10766 10764 10761 10759 10757 10756 10755 10756 10755 10751 10748 10747 10746 10744 10741 10738 10736 10737 10736 10735 10734 10733 10732 10731 10730 10729 10729 10728 10727 10726 10725 10724 10723 10722 10720 10719 10719 10718 10718 10717
10747 10747 10748 10749 10750 10753 10756 10759 10761 10760 10760 10758 10757 10758 10760 10761 10762 10763 10764 10762 10761 10762 10763 10765 10768 10769 10767 10766 10764 10764 10765 10766 10766 10765 10765 10765 10765 10766 10767 10767 10767 10767 10766 10765 10765 10763 10761 10758 10756 10754 10753 10753 10754 10753 10750 10746 10745 10744 10742 10738 10735 10733 10733 10733 10732 10732 10731 10731 10730 10729 10728 10727 10727 10726 10725 10723 10722 10722 10721 10720 10718 10718 10718 10717 10717
10739 10739 10741 10742 10743 10746 10749 10752 10755 10755 10754 10754 10754 10756 10757 10756 10756 10757 10757 10756 10755 10757 10759 10760 10763 10765 10764 10761 10760 10760 10762 10763 10762 10761 10761 10762 10762 10763 10763 10764 10764 10764 10764 10763 10762 10761 10759 10756 10754 10752 10751 10751 10751 10752 10750 10746 10743 10741 10739 10737 10734 10732 10731 10730 10730 10730 10730 10730 10729 10728 10727 10726 10725 10725 10724 10723 10721 10720 10719 10718 10717 10716 10717 10717 10716
10729 10730 10733 10735 10737 10740 10742 10746 10749 10750 10750 10752 10753 10753 10752 10751 10750 10750 10750 10749 10750 10752 10754 10756 10759 10761 10760 10757 10756 10757 10757 10758 10758 10757 10757 10757 10758 10759 10760 10761 10761 10761 10761 10760 10759 10758 10756 10753 10751 10750 10750 10749 10749 10749 10749 10746 10742 10739 10737 10736 10734 10732 10731 10729 10728 10728 10729 10728 10727 10727 10726 10725 10724 10723 10722 10721 10720 10719 10718 10717 10716 10715 10715 10716 10715
10721 10723 10726 10729 10732 10733 10736 10741 10744 10745 10747 10753 10755 10750 10747 10746 10744 10742 10742 10743 10744 10747 10750 10752 10755 10756 10755 10754 10753 10753 10753 10754 10754 10754 10754 10753 10754 10756 10757 10757 10758 10758 10757 10757 10756 10755 10753 10751 10748 10747 10747 10747 10747 10747 10746 10744 10740 10736 10734 10734 10734 10733 10731 10729 10728 10728 10727 10727 10726 10725 10724 10723 10722 10722 10721 10720 10719 10718 10717 10716 10715 10714 10714 10714 10713
10714 10717 10721 10724 10726 10728 10731 10736 10738 10740 10744 10750 10753 10744 10741 10743 10741 10737 10737 10739 10740 10742 10745 10748 10750 10751 10751 10751 10750 10750 10750 10750 10751 10751 10751 10749 10750 10752 10753 10754 10754 10754 10753 10753 10753 10752 10751 10748 10745 10743 10743 10744 10744 10744 10744 10743 10740 10735 10731 10731 10733 10733 10731 10729 10728 10727 10726 10725 10725 10724 10723 10722 10721 10720 10719 10718 10717 10716 10716 10715 10714 10713 10713 10713 10712
10709 10712 10716 10719 10720 10723 10727 10730 10733 10736 10739 10746 10747 10737 10735 10739 10738 10736 10735 10735 10737 10738 10741 10744 10745 10746 10747 10747 10747 10747 10747 10747 10748 10749 10748 10746 10747 10749 10749 10749 10749 10750 10750 10749 10749 10749 10747 10746 10743 10740 10739 10739 10740 10741 10741 10741 10739 10735 10731 10729 10730 10731 10730 10728 10727 10726 10725 10724 10723 10723 10722 10721 10719 10718 10717 10717 10716 10715 10714 10713 10712 10712 10712 10712 10712
10707 10708 10711 10714 10715 10718 10721 10724 10728 10730 10733 10739 10739 10733 10732 10735 10735 10735 10734 10733 10734 10735 10738 10740 10741 10743 10744 10744 10744 10744 10744 10743 10745 10746 10745 10743 10743 10744 10744 10744 10745 10745 10746 10746 10745 10745 10744 10743 10741 10739 10737 10736 10737 10738 10739 10739 10737 10735 10732 10729 10728 10728 10727 10726 10725 10724 10723 10722 10721 10721 10720 10719 10718 10717 10716 10715 10714 10714 10713 10712 10711 10711 10711 10711 10710
10702 10703 10705 10708 10709 10712 10715 10718 10722 10723 10726 10731 10733 10731 10731 10732 10733 10733 10730 10728 10729 10732 10735 10737 10738 10739 10740 10742 10742 10741 10741 10740 10741 10741 10741 10740 10740 10740 10739 10739 10741 10741 10742 10742 10742 10741 10740 10740 10739 10737 10736 10735 10734 10735 10735 10736 10735 10733 10731 10728 10726 10725 10725 10723 10723 10722 10721 10720 10719 10719 10718 10717 10716 10715 10714 10713 10713 10712 10712 10711 10710 10709 10709 10709 10709
10695 10697 10699 10701 10702 10706 10708 10712 10715 10716 10719 10724 10728 10730 10728 10730 10731 10729 10726 10723 10723 10728 10731 10733 10735 10735 10736 10739 10739 10738 10737 10736 10736 10737 10737 10737 10737 10737 10736 10737 10738 10738 10738 10739 10739 10738 10737 10736 10736 10735 10734 10733 10733 10733 10733 10732 10732 10731 10728 10726 10724 10723 10722 10721 10720 10720 10719 10718 10717 10717 10716 10716 10715 10714 10713 10712 10711 10711 10710 10709 10708 10707 10707 10706 10706
10688 10691 10694 10695 10696 10700 10703 10707 10710 10712 10717 10720 10723 10725 10722 10723 10724 10723 10722 10720 10719 10723 10726 10730 10732 10731 10733 10734 10735 10735 10733 10732 10732 10732 10732 10733 10734 10734 10734 10734 10734 10735 10735 10736 10735 10735 10734 10733 10732 10731 10731 10730 10730 10730 10730 10729 10728 10728 10726 10723 10721 10721 10720 10719 10718 10717 10717 10716 10715 10715 10714 10714 10713 10712 10711 10710 10710 10709 10708 10707 10706 10705 10704 10704 10703
10681 10685 10688 10688 10691 10695 10699 10704 10707 10708 10712 10714 10717 10719 10716 10716 10717 10717 10718 10717 10717 10719 10722 10725 10727 10727 10728 10729 10730 10730 10729 10729 10728 10727 10727 10729 10730 10731 10731 10731 10731 10732 10732 10732 10732 10732 10731 10730 10729 10728 10728 10727 10727 10727 10726 10725 10725 10724 10722 10720 10718 10718 10717 10716 10715 10715 10714 10714 10713 10712 10712 10711 10711 10710 10710 10709 10708 10707 10706 10705 10704 10703 10702 10702 10701
10674 10679 10681 10682 10685 10691 10695 10700 10702 10703 10705 10707 10710 10711 10709 10710 10711 10712 10714 10715 10714 10713 10715 10719 10721 10722 10723 10725 10726 10726 10726 10725 10724 10723 10724 10726 10727 10727 10728 10728 10728 10729 10729 10729 10728 10728 10728 10727 10726 10726 10725 10724 10723 10722 10722 10721 10720 10720 10719 10717 10715 10715 10714 10713 10712 10712 10711 10711 10711 10710 10709 10709 10708 10708 10707 10707 10706 10705 10704 10703 10702 10701 10700 10699 10698
10669 10673 10673 10675 10682 10687 10692 10695 10696 10698 10699 10700 10702 10704 10703 10703 10705 10707 10711 10712 10709 10707 10710 10714 10717 10717 10718 10720 10721 10721 10721 10721 10720 10721 10722 10723 10724 10724 10725 10725 10725 10725 10725 10725 10725 10724 10724 10723 10723 10723 10722 10721 10719 10719 10718 10717 10716 10715 10715 10713 10712 10711 10711 10710 10710 10709 10708 10708 10708 10707 10707 10707 10706 10705 10705 10704 10703 10702 10701 10700 10699 10698 10697 10696 10695
10662 10665 10666 10672 10679 10684 10688 10689 10691 10692 10694 10694 10696 10699 10699 10699 10701 10703 10706 10708 10705 10703 10706 10710 10711 10713 10714 10716 10716 10716 10716 10716 10717 10718 10718 10720 10721 10721 10722 10722 10722 10722 10722 10721 10721 10721 10720 10720 10719 10719 10718 10718 10716 10715 10714 10713 10712 10711 10710 10709 10708 10707 10707 10707 10706 10706 10705 10705 10705 10704 10704 10704 10703 10702 10701 10700 10699 10698 10698 10697 10696 10695 10694 10693 10692
10656 10660 10664 10670 10676 10682 10685 10684 10685 10688 10689 10690 10692 10694 10696 10696 10698 10699 10701 10704 10702 10701 10703 10705 10707 10710 10711 10711 10711 10711 10712 10711 10713 10714 10715 10716 10717 10718 10719 10719 10719 10719 10718 10718 10717 10717 10717 10717 10716 10715 10714 10714 10713 10712 10710 10709 10708 10707 10706 10705 10704 10703 10703 10703 10703 10703 10702 10702 10702 10701 10701 10701 10700 10699 10698 10697 10696 10695 10695 10694 10693 10692 10691 10690 10689
10654 10658 10663 10670 10675 10680 10682 10679 10679 10682 10684 10687 10688 10689 10691 10692 10694 10695 10698 10700 10700 10698 10699 10701 10704 10707 10707 10707 10706 10707 10708 10708 10709 10711 10711 10712 10713 10715 10716 10716 10715 10715 10715 10714 10714 10713 10713 10713 10712 10711 10711 10710 10709 10708 10707 10705 10704 10703 10702 10701 10700 10700 10699 10699 10700 10700 10699 10699 10699 10698 10698 10698 10697 10697 10696 10694 10694 10693 10692 10692 10690 10689 10687 10686 10685
10653 10658 10665 10671 10676 10679 10676 10672 10672 10674 10678 10682 10683 10683 10685 10687 10689 10691 10693 10695 10696 10696 10696 10699 10702 10703 10703 10703 10702 10704 10706 10706 10706 10707 10708 10709 10710 10711 10712 10712 10712 10712 10711 10710 10710 10710 10710 10710 10709 10708 10708 10707 10705 10704 10703 10701 10700 10699 10699 10698 10697 10697 10696 10696 10696 10696 10696 10696 10695 10695 10695 10695 10695 10694 10694 10692 10691 10690 10689 10689 10688 10686 10685 10683 10682